Simultaneous Nadir Overpasses (SNOs) Predictions

Prediction of SNOs between GOES-16 and NOAA-20 Satellite Orbit:

Table of predicted SNOs for the next 14.0 days since TLE Epoch: 3/11/2023
Index Date Time (GOES-16) GOES-16 Lat,Lon NOAA-20 Lat,Lon Distance(km) Time Diff (sec)
1 03/12/2023 18:26:55 0.07, -75.21 -0.04, -75.74 60.01 80
2 03/13/2023 18:10:51 0.07, -75.21 0.95, -71.20 456.83 80
3 03/15/2023 06:32:39 -0.06, -75.22 0.24, -76.47 143.09 80
4 03/16/2023 06:11:16 -0.06, -75.22 -0.81, -71.95 373.79 80
5 03/17/2023 18:33:12 0.05, -75.23 -0.42, -77.24 229.31 80
6 03/18/2023 18:17:08 0.05, -75.24 0.59, -72.71 288.17 80
7 03/20/2023 06:38:56 -0.04, -75.26 0.59, -77.98 310.23 80
8 03/21/2023 06:17:32 -0.04, -75.27 -0.47, -73.46 207.66 80
9 03/22/2023 18:42:09 0.04, -75.30 -0.73, -78.75 393.91 80
10 03/23/2023 18:20:44 0.04, -75.32 0.28, -74.22 124.53 80
